Tracking 30918 objects as of 2-Jul-2025
HD Live streaming from Space Station
objects crossing your sky now

TITAN 34B AGENA D DEB

Track TITAN 34B AGENA D DEB now!
10-day predictions


NORAD ID: 23811
Int'l Code: 1983-078C
Perigee: 443.0 km
Apogee: 13,434.0 km
Inclination: 63.4 °
Period: 254.7 minutes
Semi major axis: 13309 km
RCS: Unknown
Launch date: July 31, 1983
Source: United States (US)
Launch site: AIR FORCE WESTERN TEST RANGE (AFWTR)

Note: This is SATELLITE DEBRIS
Your satellite tracking list
Your tracking list is empty




NASA's NSSDC Master Catalog

Two Line Element Set (TLE):
1 23811U 83078C   25181.66027975  .00003077  00000-0  25749-2 0  9996
2 23811  63.3993 314.7629 4880356 247.3922  55.0433  5.65407176118062
Source of the keplerian elements: AFSPC